Location: Béaulencourt
(50.0796°N, 2.8795°E)
Time: 23:12:13
(UTC+00:00)

Cosmos 1190 Rocket - Pass Details

Date: 20 January 2026
Orbit: 753 x 775 km, 74.1° (Epoch: 7 February)

Event Time Altitude Azimuth Distance (km) Brightness Sun altitude
Rises 06:35:41 0° 210° (SSW) 3,206 7.1 -9.7°
Reaches altitude 10° 06:38:04 10° 213° (SSW) 2,282 6.3 -9.4°
Maximum altitude 06:43:13 68° 296° (WNW) 815 3.9 -8.6°
Drops below altitude 10° 06:48:23 10° 20° (NNE) 2,290 6.5 -7.8°
Sets 06:50:47 0° 23° (NNE) 3,218 7.2 -7.5°
